Sidney-Richland, MT

8:12 AM MDT on May 26, 2017 (GMT -0600)
Sidney-Richland Municipal

Weather History for KSDY - November, 2013

Change the Weather History Date:

Friday, November 8, 2013

  Actual Average Record
Temperature  
Mean Temperature 43 °F -  
Max Temperature 51 °F 43 °F 68 °F (1999)
Min Temperature 35 °F 22 °F -2 °F (1966)
Degree Days  
Heating Degree Days 22    
Moisture  
Dew Point 33 °F    
Average Humidity 73    
Maximum Humidity 93    
Minimum Humidity 50    
Precipitation  
Precipitation 0.02 in - - ()
Sea Level Pressure  
Sea Level Pressure 29.69 in    
Wind  
Wind Speed 12 mph (West)    
Max Wind Speed 31 mph    
Max Gust Speed 38 mph    
Visibility 10 miles    
Events      
Averages and records for this station are not official NWS values.
T = Trace of Precipitation, MM = Missing Value Source: NWS Daily Summary

Daily Weather History Graph

Daily Weather History Graph

Search for Another Location

Airport or City:

Trip Planner

Search our weather history database for the weather conditions in past years. The results will help you decide how hot, cold, wet, or windy it might be!

Date:

Astronomy

Nov. 08, 2013 Rise Set
Actual Time 6:52 AM MST 4:28 PM MST
Civil Twilight 6:19 AM MST 5:01 PM MST
Nautical Twilight 5:42 AM MST 5:38 PM MST
Astronomical Twilight 5:06 AM MST 6:14 PM MST
Moon 11:49 AM MST (11/8) 9:53 PM MST (11/8)
Length of Visible Light 10h 42m
Length of Day
9h 36m
Waxing Crescent, 34% of the Moon is Illuminated
Nov 8
Waxing Crescent
Nov 9
First Quarter
Nov 17
Full
Nov 25
Last Quarter
Dec 2
New

Hourly Weather History & Observations

Time (MST) Temp. Windchill Dew Point Humidity Pressure Visibility Wind Dir Wind Speed Gust Speed Precip Events Conditions
12:15 AM 39.2 °F 33.6 °F 24.8 °F 56% 29.73 in 10.0 mi SSE 8.1 mph - N/A   Overcast
12:55 AM 41.0 °F 36.4 °F 24.8 °F 53% 29.70 in 10.0 mi South 6.9 mph - N/A   Overcast
1:15 AM 39.2 °F 34.2 °F 24.8 °F 56% 29.69 in 10.0 mi South 6.9 mph - N/A   Overcast
1:35 AM 39.2 °F 32.0 °F 24.8 °F 56% 29.68 in 10.0 mi South 11.5 mph - N/A   Mostly Cloudy
1:55 AM 41.0 °F 34.7 °F 24.8 °F 53% 29.68 in 10.0 mi SSE 10.4 mph - N/A   Mostly Cloudy
2:15 AM 39.2 °F 34.2 °F 26.6 °F 61% 29.67 in 10.0 mi South 6.9 mph - N/A   Overcast
2:35 AM 37.4 °F 32.8 °F 28.4 °F 70% 29.66 in 10.0 mi South 5.8 mph - N/A   Overcast
3:15 AM 37.4 °F 33.8 °F 32.0 °F 81% 29.63 in 10.0 mi South 4.6 mph - N/A   Overcast
3:35 AM 37.4 °F 30.8 °F 32.0 °F 81% 29.63 in 10.0 mi South 9.2 mph - N/A   Overcast
4:15 AM 37.4 °F 34.9 °F 33.8 °F 87% 29.61 in 10.0 mi South 3.5 mph - N/A   Overcast
4:35 AM 37.4 °F 32.8 °F 33.8 °F 87% 29.61 in 10.0 mi SSW 5.8 mph - N/A   Overcast
4:55 AM 35.6 °F 28.6 °F 33.8 °F 93% 29.61 in 10.0 mi SSW 9.2 mph - N/A   Overcast
5:15 AM 35.6 °F 29.2 °F 32.0 °F 87% 29.60 in 7.0 mi South 8.1 mph - N/A   Overcast
5:35 AM 35.6 °F 30.7 °F 33.8 °F 93% 29.59 in 10.0 mi South 5.8 mph - N/A   Overcast
5:55 AM 35.6 °F 31.7 °F 32.0 °F 87% 29.59 in 10.0 mi South 4.6 mph - 0.01 in   Overcast
6:15 AM 35.6 °F 29.9 °F 33.8 °F 93% 29.59 in 10.0 mi South 6.9 mph - N/A   Overcast
6:35 AM 35.6 °F 30.7 °F 33.8 °F 93% 29.59 in 10.0 mi South 5.8 mph - N/A   Overcast
6:55 AM 35.6 °F - 33.8 °F 93% 29.59 in 10.0 mi Calm Calm - N/A   Overcast
7:15 AM 35.6 °F 32.8 °F 33.8 °F 93% 29.59 in 10.0 mi SSW 3.5 mph - N/A   Overcast
7:35 AM 35.6 °F 32.8 °F 33.8 °F 93% 29.60 in 10.0 mi South 3.5 mph - N/A   Overcast
7:55 AM 35.6 °F 31.7 °F 33.8 °F 93% 29.60 in 10.0 mi SSW 4.6 mph - 0.01 in   Overcast
8:15 AM 37.4 °F 33.8 °F 33.8 °F 87% 29.60 in 10.0 mi SSE 4.6 mph - N/A   Overcast
8:35 AM 37.4 °F 31.4 °F 33.8 °F 87% 29.60 in 10.0 mi South 8.1 mph - N/A   Overcast
8:55 AM 42.8 °F 35.8 °F 39.2 °F 87% 29.59 in 10.0 mi West 13.8 mph 18.4 mph N/A   Overcast
9:15 AM 44.6 °F 37.2 °F 39.2 °F 81% 29.59 in 10.0 mi West 17.3 mph 24.2 mph N/A   Overcast
9:35 AM 44.6 °F 37.2 °F 39.2 °F 81% 29.60 in 10.0 mi WNW 17.3 mph 24.2 mph N/A   Overcast
9:55 AM 44.6 °F 36.4 °F 39.2 °F 81% 29.60 in 10.0 mi WNW 20.7 mph 25.3 mph N/A   Overcast
10:15 AM 44.6 °F 36.6 °F 37.4 °F 76% 29.60 in 10.0 mi WNW 19.6 mph 28.8 mph N/A   Overcast
10:35 AM 44.6 °F 36.9 °F 37.4 °F 76% 29.61 in 10.0 mi WNW 18.4 mph 23.0 mph N/A   Mostly Cloudy
10:55 AM 46.4 °F 39.5 °F 37.4 °F 71% 29.61 in 10.0 mi WNW 17.3 mph 24.2 mph N/A   Scattered Clouds
11:15 AM 46.4 °F 39.0 °F 37.4 °F 71% 29.61 in 10.0 mi WNW 19.6 mph 26.5 mph N/A   Mostly Cloudy
11:35 AM 48.2 °F - 37.4 °F 66% 29.60 in 10.0 mi WNW 23.0 mph - N/A   Mostly Cloudy
11:55 AM 48.2 °F - 35.6 °F 62% 29.60 in 10.0 mi WNW 23.0 mph 31.1 mph N/A   Partly Cloudy
12:15 PM 48.2 °F - 33.8 °F 58% 29.60 in 10.0 mi WNW 19.6 mph 27.6 mph N/A   Mostly Cloudy
12:35 PM 48.2 °F - 33.8 °F 58% 29.61 in 10.0 mi West 17.3 mph 28.8 mph N/A   Mostly Cloudy
12:55 PM 48.2 °F - 33.8 °F 58% 29.60 in 10.0 mi West 21.9 mph 34.5 mph N/A   Overcast
1:35 PM 50.0 °F - 33.8 °F 54% 29.58 in 10.0 mi West 31.1 mph 38.0 mph N/A   Overcast
1:55 PM 51.8 °F - 33.8 °F 50% 29.59 in 10.0 mi West 31.1 mph 38.0 mph N/A   Overcast
2:15 PM 50.0 °F - 33.8 °F 54% 29.62 in 10.0 mi WNW 23.0 mph 35.7 mph N/A   Overcast
2:35 PM 50.0 °F - 33.8 °F 54% 29.63 in 10.0 mi WNW 23.0 mph 28.8 mph N/A   Mostly Cloudy
2:55 PM 48.2 °F - 33.8 °F 58% 29.65 in 10.0 mi West 19.6 mph 31.1 mph N/A   Partly Cloudy
3:15 PM 48.2 °F - 32.0 °F 54% 29.66 in 10.0 mi West 21.9 mph 28.8 mph N/A   Scattered Clouds
3:35 PM 48.2 °F - 33.8 °F 58% 29.67 in 10.0 mi WNW 17.3 mph 28.8 mph N/A   Partly Cloudy
3:55 PM 46.4 °F 38.1 °F 33.8 °F 62% 29.68 in 10.0 mi WNW 24.2 mph 29.9 mph N/A   Clear
4:15 PM 46.4 °F 38.3 °F 33.8 °F 62% 29.68 in 10.0 mi WNW 23.0 mph 28.8 mph N/A   Clear
4:35 PM 44.6 °F 36.4 °F 33.8 °F 66% 29.70 in 10.0 mi WNW 20.7 mph 26.5 mph N/A   Partly Cloudy
4:55 PM 44.6 °F 36.4 °F 33.8 °F 66% 29.71 in 10.0 mi WNW 20.7 mph 29.9 mph N/A   Partly Cloudy
5:15 PM 42.8 °F 34.0 °F 33.8 °F 70% 29.72 in 10.0 mi WNW 20.7 mph 28.8 mph N/A   Mostly Cloudy
5:35 PM 42.8 °F 33.1 °F 33.8 °F 70% 29.73 in 10.0 mi WNW 25.3 mph 31.1 mph N/A   Mostly Cloudy
5:55 PM 42.8 °F 33.1 °F 33.8 °F 70% 29.75 in 10.0 mi WNW 25.3 mph 35.7 mph N/A   Scattered Clouds
6:35 PM 39.2 °F 29.0 °F 33.8 °F 81% 29.79 in 10.0 mi WNW 21.9 mph 28.8 mph N/A   Mostly Cloudy
6:55 PM 39.2 °F 28.7 °F 32.0 °F 75% 29.80 in 10.0 mi WNW 23.0 mph 28.8 mph N/A   Overcast
7:15 PM 39.2 °F 29.0 °F 32.0 °F 75% 29.81 in 10.0 mi WNW 21.9 mph 26.5 mph N/A   Overcast
7:35 PM 39.2 °F 31.2 °F 32.0 °F 75% 29.82 in 10.0 mi WNW 13.8 mph 21.9 mph N/A   Overcast
7:55 PM 37.4 °F 28.2 °F 30.2 °F 75% 29.83 in 10.0 mi WNW 16.1 mph 23.0 mph N/A   Mostly Cloudy
8:15 PM 37.4 °F 28.5 °F 30.2 °F 75% 29.84 in 10.0 mi WNW 15.0 mph - N/A   Overcast
8:35 PM 37.4 °F 29.3 °F 30.2 °F 75% 29.85 in 10.0 mi WNW 12.7 mph 19.6 mph N/A   Overcast
8:55 PM 37.4 °F 29.3 °F 30.2 °F 75% 29.86 in 10.0 mi WNW 12.7 mph - N/A   Overcast
9:15 PM 37.4 °F 30.3 °F 30.2 °F 75% 29.87 in 10.0 mi WNW 10.4 mph - N/A   Overcast
9:35 PM 37.4 °F 30.3 °F 30.2 °F 75% 29.87 in 10.0 mi WNW 10.4 mph - N/A   Overcast
9:55 PM 37.4 °F 30.3 °F 30.2 °F 75% 29.88 in 10.0 mi WNW 10.4 mph - N/A   Overcast
10:15 PM 35.6 °F 29.2 °F 30.2 °F 81% 29.89 in 10.0 mi West 8.1 mph - N/A   Mostly Cloudy
10:35 PM 35.6 °F 28.6 °F 30.2 °F 81% 29.90 in 10.0 mi WNW 9.2 mph - N/A   Overcast
10:55 PM 35.6 °F 28.6 °F 30.2 °F 81% 29.90 in 10.0 mi West 9.2 mph - N/A   Mostly Cloudy
11:15 PM 35.6 °F 28.6 °F 30.2 °F 81% 29.91 in 10.0 mi West 9.2 mph - N/A   Partly Cloudy
11:35 PM 35.6 °F 28.0 °F 30.2 °F 81% 29.93 in 10.0 mi WNW 10.4 mph - N/A   Partly Cloudy
11:55 PM 35.6 °F 26.2 °F 30.2 °F 81% 29.94 in 10.0 mi WNW 15.0 mph 18.4 mph N/A   Mostly Cloudy